Location: Tamazert
(32.6352°N, 5.2072°W)
Time: 17:25:32
(UTC+00:00)

IRS-1D - Pass Details

Date: 22 May 2022
Orbit: 740 x 816 km, 98.7° (Epoch: 06 July)

Event Time Altitude Azimuth Distance (km) Brightness Sun altitude
Rises 02:32:41 0° 19° (NNE) 3,345 7.9 -27.9°
Reaches altitude 10° 02:35:06 10° 24° (NNE) 2,406 7.0 -27.6°
Maximum altitude 02:40:18 52° 100° (E) 993 4.1 -27.0°
Enters shadow 02:41:11 47° 134° (SE) 1,059 4.1 -26.9°
